Wind_Speed
40 39 34 41 38 36 34 36 43 48 47 46 41 42 40 38 41 42 42 42 46 49 42 35 32 33 27 27 25 24 24 30 33 28 30 30 30 30 32 38 41 41 40
37 34 30 23 31 34 37 33 31 32 38 42 41 40 35 38 39 40 36 38 41 44 41 36 32 28 28 25 21 23 29 30 27 27 28 28 29 31 34 36 38 41 40
36 38 30 24 26 31 35 30 27 31 37 42 37 37 33 34 36 40 36 36 40 45 38 32 31 27 27 21 20 28 25 21 23 24 25 26 28 31 32 33 33 35 39
38 35 25 24 22 26 24 25 30 34 39 38 32 31 31 31 31 32 33 37 46 43 48 32 28 24 20 18 20 21 18 20 21 22 24 26 29 31 32 30 27 31 32
39 34 28 23 20 19 19 29 34 33 33 29 27 27 31 30 31 27 27 36 43 37 39 36 21 20 17 23 17 14 18 19 19 20 24 27 29 29 29 28 29 29 28
39 30 16 18 14 17 25 29 28 27 27 27 22 26 30 26 24 28 30 33 36 35 25 21 20 20 23 13 11 14 16 17 18 21 24 26 27 27 28 28 31 30 27
27 12 9 14 13 17 21 22 22 23 23 19 19 23 23 23 25 22 31 29 27 27 28 19 19 17 10 8 11 12 14 15 18 20 22 24 25 26 25 25 28 31 33
17 4 8 13 12 15 16 18 18 18 18 18 18 17 18 19 19 21 35 24 28 27 18 22 14 8 7 7 8 10 12 15 18 20 21 23 24 24 24 26 27 30 29
11 4 9 13 13 11 16 18 21 21 23 23 21 13 20 15 26 27 29 27 22 14 20 16 9 7 5 5 6 9 12 16 18 20 22 24 25 25 24 25 26 25 20
5 7 13 10 11 13 17 18 23 22 22 20 17 19 20 31 30 23 25 26 13 14 16 12 9 6 4 3 6 10 13 17 20 22 25 26 26 25 25 25 27 24 20
5 8 9 14 13 11 18 18 13 24 26 21 30 31 34 33 33 33 25 24 25 19 14 11 9 6 2 6 9 12 14 17 20 23 25 26 26 25 26 27 27 23 20
9 7 18 6 18 17 17 16 21 26 30 41 36 35 32 27 21 24 27 29 25 17 14 11 8 6 7 8 10 12 16 19 23 24 24 23 22 22 24 27 27 22 21
12 5 9 11 27 29 28 21 18 41 36 33 33 31 32 32 30 26 28 25 24 17 14 11 10 9 8 10 12 16 19 21 22 22 22 23 21 19 23 27 26 24 24
10 8 12 12 28 27 30 40 41 39 33 25 30 32 32 33 33 31 27 24 22 17 14 12 10 11 12 13 15 17 19 20 20 23 24 21 17 20 24 26 27 23 22
5 7 7 17 29 31 34 37 30 30 31 32 32 35 37 37 34 30 25 23 20 17 15 14 13 13 15 15 17 18 19 20 21 23 21 17 19 23 27 29 27 22 20
19 17 27 28 33 35 34 38 39 36 42 35 35 32 35 31 30 26 23 21 18 19 16 14 14 15 14 15 17 17 19 21 21 21 20 21 22 24 27 28 26 22 20
19 24 28 31 37 38 37 27 35 47 39 36 34 31 29 29 27 25 22 18 16 19 15 15 14 15 14 16 16 17 20 20 22 22 25 26 26 25 25 25 24 22 19
23 26 30 32 33 30 28 35 38 39 38 38 35 30 28 26 24 24 23 19 18 18 15 15 14 13 15 17 18 19 21 21 20 26 29 26 26 24 24 23 22 21 20
18 19 23 30 31 30 36 34 33 32 31 31 31 30 28 24 21 20 21 19 17 15 15 14 14 16 17 18 19 20 20 19 24 29 27 24 24 24 24 24 22 21 23
21 21 28 24 27 35 32 31 31 30 30 29 29 28 27 22 19 19 19 17 16 14 14 15 16 18 17 18 20 20 20 21 27 27 25 24 24 24 24 25 22 23 26
21 26 24 34 33 31 30 28 27 26 26 26 26 26 25 20 19 19 17 15 14 15 15 16 17 17 18 20 19 20 21 26 26 24 23 23 23 23 24 24 24 22 23
24 25 31 34 32 30 29 27 25 23 23 22 22 23 23 19 18 16 16 15 15 16 15 16 18 18 18 17 19 20 24 26 23 23 24 23 22 24 24 23 21 21 20
25 30 34 32 31 30 28 26 24 23 22 21 21 21 22 18 17 15 15 16 16 15 16 18 18 18 16 18 19 22 24 24 24 24 24 21 22 25 23 21 22 21 20
26 36 31 31 30 27 25 25 23 21 19 19 20 19 18 16 15 15 15 16 16 17 18 17 17 17 16 18 20 24 25 24 25 25 23 22 23 25 24 21 22 24 24
36 33 30 30 28 25 24 22 21 20 19 19 18 16 16 15 15 15 15 17 17 16 16 17 17 16 16 19 22 23 24 25 24 24 23 24 24 25 24 22 22 22 23
34 31 28 28 27 25 23 21 21 20 19 17 16 16 15 15 15 15 15 16 16 17 18 17 15 15 18 21 22 23 25 24 23 23 23 24 24 24 24 21 22 21 22
Wind_Direction
298 304 288 265 253 256 258 262 255 243 230 227 233 238 246 238 230 236 238 241 231 238 239 229 242 251 260 266 275 294 295 294 295 299 302 306 308 312 313 316 318 320 325
309 306 297 275 256 260 267 261 250 218 215 218 224 237 240 226 231 229 235 238 228 222 226 225 238 250 258 270 282 298 294 294 299 295 302 306 308 313 318 321 321 323 324
302 304 288 265 260 267 263 249 218 206 210 213 225 236 230 220 232 226 229 230 222 221 229 218 228 244 259 269 285 285 295 296 293 299 303 305 311 318 323 323 321 321 320
316 306 277 261 255 272 247 216 204 209 208 214 224 238 219 218 226 227 231 222 215 234 225 218 224 238 255 265 282 295 289 290 295 300 305 312 320 324 324 324 319 316 319
318 310 273 251 251 261 218 193 199 207 213 219 226 233 210 219 227 228 232 228 226 220 209 209 220 240 255 270 271 279 287 292 300 308 314 322 326 325 324 322 323 326 325
327 314 234 226 240 220 203 192 197 205 212 221 230 219 211 221 225 226 229 217 225 205 203 208 229 245 252 257 266 282 292 300 310 318 325 325 326 328 328 329 327 332 332
335 336 200 192 223 188 185 183 191 205 215 224 216 216 209 217 223 219 190 176 169 185 192 205 230 230 232 248 272 286 299 307 316 324 326 332 330 332 332 334 338 339 336
342 231 185 183 185 181 189 196 204 213 219 206 195 199 204 211 220 216 182 197 180 193 178 215 231 205 226 259 280 298 307 319 329 334 337 335 336 337 339 343 346 341 337
323 185 198 181 188 196 195 199 199 192 189 182 181 183 180 177 163 176 167 187 171 171 208 201 180 208 235 270 288 309 332 337 338 342 342 342 343 344 350 347 343 339 337
326 115 188 168 178 181 175 189 190 181 187 172 176 171 178 184 168 173 170 195 160 169 179 159 173 176 191 255 337 348 348 348 347 349 349 349 346 349 353 349 344 343 348
75 134 176 187 170 169 187 183 176 175 170 178 163 154 151 157 153 158 159 161 147 139 147 152 155 148 88 21 7 3 357 354 357 355 355 351 350 353 354 351 349 353 356
4 43 199 164 179 169 167 162 161 178 179 155 153 154 148 169 158 154 166 151 125 132 140 131 120 84 49 28 19 7 6 6 3 359 357 352 354 356 353 355 356 360 359
39 96 99 163 172 185 153 135 156 158 151 143 149 141 140 142 152 149 122 121 124 128 129 117 92 71 53 36 24 19 14 9 5 1 359 358 359 358 3 3 2 0 359
58 92 56 130 184 161 157 144 138 130 131 132 136 138 143 137 125 126 129 125 121 121 109 97 88 69 52 36 29 22 14 9 6 8 5 359 7 10 7 8 7 4 0
160 114 112 119 136 126 131 137 121 121 129 120 124 129 127 127 127 126 124 122 116 111 96 80 71 62 48 37 30 21 14 13 13 12 6 7 17 14 11 11 6 3 4
110 96 128 128 139 122 131 133 132 125 121 125 125 125 126 123 119 118 115 114 108 96 82 76 65 55 46 40 32 23 19 19 16 12 14 26 23 16 11 8 5 3 3
103 115 118 132 137 137 137 137 132 122 124 122 120 119 118 115 113 112 105 96 97 87 79 71 59 53 46 40 33 27 24 21 18 15 25 28 21 15 10 8 7 8 9
110 121 129 133 137 140 135 127 122 123 126 125 123 120 116 115 113 108 100 93 88 86 79 68 63 57 50 41 35 29 26 23 19 26 28 25 18 16 13 14 15 16 20
117 123 133 140 136 131 121 125 123 121 121 118 117 113 106 105 105 102 93 85 83 78 74 71 65 57 50 42 36 31 27 25 29 30 26 22 17 16 19 20 21 20 26
117 123 125 111 123 115 118 118 120 123 121 115 109 108 107 103 101 95 91 90 85 80 78 69 62 56 49 44 38 31 29 31 34 28 24 21 18 20 24 28 29 30 41
123 131 124 120 118 119 119 121 120 118 114 113 115 112 107 103 97 92 92 92 90 83 76 72 67 59 50 43 36 34 32 37 33 27 26 24 19 23 27 30 26 30 40
133 131 126 123 124 124 123 120 118 118 115 113 114 113 104 100 99 100 97 94 88 79 76 73 64 56 48 41 38 37 38 38 32 29 29 26 25 29 32 28 27 26 42
143 135 129 128 125 123 123 124 120 116 115 118 118 110 103 101 100 100 97 90 83 81 76 68 62 53 44 42 40 41 40 38 33 32 29 26 28 34 38 34 31 33 42
153 135 133 129 125 125 124 119 118 118 116 114 109 104 106 108 107 103 98 91 86 78 72 66 57 51 43 42 40 41 39 37 33 33 29 30 30 36 39 39 36 31 37
139 136 134 130 128 126 124 126 126 121 118 117 114 111 107 105 102 101 95 89 85 81 73 63 54 49 46 43 41 40 40 38 34 31 29 32 32 37 40 42 40 34 40
137 137 137 135 132 132 133 131 128 125 123 123 118 113 110 108 103 99 96 93 88 79 67 58 53 50 47 45 42 40 41 39 36 32 33 35 34 37 44 46 44 40 43
Height
2981 2976 2973 2968 2972 2973 2973 2975 2976 2981 2992 3004 3013 3016 3019 3023 3029 3036 3042 3048 3051 3059 3065 3069 3075 3078 3080 3079 3080 3077 3075 3072 3070 3066 3062 3058 3053 3047 3041 3033 3026 3019 3012
2968 2965 2961 2958 2961 2962 2963 2964 2965 2970 2983 2993 3000 3007 3009 3014 3022 3027 3033 3038 3042 3050 3057 3063 3070 3073 3074 3076 3074 3072 3070 3066 3064 3061 3057 3052 3047 3042 3036 3028 3019 3011 3006
2958 2953 2952 2951 2952 2951 2951 2955 2960 2967 2976 2983 2991 2998 3002 3008 3015 3020 3026 3031 3036 3044 3050 3055 3063 3067 3069 3070 3069 3067 3064 3062 3059 3056 3051 3047 3041 3036 3029 3022 3015 3007 2999
2950 2943 2940 2941 2942 2941 2939 2946 2954 2962 2968 2976 2983 2990 2997 3002 3009 3012 3019 3024 3029 3031 3042 3051 3058 3063 3065 3065 3063 3061 3059 3058 3054 3050 3047 3041 3035 3029 3023 3017 3012 3006 2998
2939 2931 2926 2931 2934 2934 2936 2941 2948 2958 2966 2974 2980 2984 2990 2997 3003 3007 3012 3019 3019 3028 3036 3045 3052 3058 3060 3059 3057 3056 3056 3053 3050 3046 3042 3035 3029 3023 3018 3012 3005 3000 2992
2931 2921 2918 2926 2929 2930 2934 2939 2947 2956 2964 2971 2975 2980 2985 2993 2999 3003 3007 3012 3018 3024 3035 3041 3048 3053 3054 3052 3052 3052 3051 3049 3046 3041 3036 3030 3024 3018 3012 3005 2998 2992 2989
2927 2918 2920 2924 2927 2929 2934 2940 2948 2955 2960 2967 2971 2977 2983 2990 2996 3000 3001 3007 3015 3023 3031 3040 3045 3046 3047 3047 3048 3048 3046 3045 3041 3035 3031 3025 3020 3014 3008 3002 2993 2986 2980
2923 2921 2923 2925 2928 2931 2936 2941 2947 2953 2958 2963 2969 2974 2980 2986 2991 2999 3000 3008 3016 3022 3028 3036 3040 3042 3043 3044 3045 3044 3043 3040 3035 3031 3026 3021 3015 3009 3004 2998 2991 2984 2978
2921 2921 2923 2926 2929 2932 2936 2941 2945 2951 2955 2961 2967 2972 2978 2984 2991 2996 3003 3011 3017 3020 3028 3033 3037 3041 3042 3043 3043 3041 3038 3035 3031 3026 3021 3016 3010 3005 2999 2995 2989 2984 2979
2920 2919 2923 2926 2929 2933 2937 2941 2945 2949 2956 2960 2966 2972 2979 2984 2991 2999 3006 3011 3015 3022 3030 3034 3038 3041 3041 3041 3039 3036 3033 3031 3026 3020 3016 3010 3006 3001 2996 2991 2986 2980 2975
2922 2922 2923 2926 2929 2935 2939 2942 2945 2949 2954 2959 2965 2971 2978 2986 2992 3000 3004 3010 3017 3025 3032 3037 3040 3040 3039 3037 3035 3033 3030 3027 3023 3018 3012 3008 3002 2998 2994 2989 2983 2978 2972
2924 2923 2924 2926 2930 2937 2941 2944 2946 2949 2954 2958 2965 2972 2978 2987 2992 2998 3003 3010 3018 3027 3033 3035 3037 3037 3036 3035 3033 3031 3027 3023 3020 3016 3012 3008 3003 2999 2994 2988 2981 2977 2972
2928 2928 2927 2929 2933 2932 2941 2945 2947 2949 2958 2963 2970 2974 2980 2988 2995 3001 3007 3016 3022 3029 3033 3035 3034 3034 3034 3033 3030 3028 3024 3023 3020 3017 3012 3008 3003 3000 2995 2988 2981 2974 2970
2933 2934 2933 2933 2935 2938 2942 2948 2954 2960 2966 2970 2975 2980 2987 2993 3002 3009 3016 3021 3025 3029 3031 3032 3033 3032 3032 3030 3029 3027 3025 3024 3020 3015 3011 3008 3003 2998 2994 2988 2982 2976 2971
2939 2939 2941 2941 2945 2950 2954 2960 2965 2970 2975 2982 2986 2992 2996 3001 3006 3012 3018 3023 3026 3028 3030 3030 3031 3032 3031 3031 3029 3027 3026 3023 3021 3015 3013 3009 3003 2996 2992 2988 2983 2977 2973
2945 2944 2948 2951 2955 2960 2964 2968 2970 2975 2982 2991 2997 3003 3004 3009 3012 3018 3022 3025 3026 3026 3030 3032 3033 3033 3033 3032 3030 3030 3028 3024 3020 3018 3013 3006 3001 2997 2993 2989 2984 2979 2973
2954 2954 2956 2961 2966 2969 2971 2975 2977 2983 2991 2998 3002 3006 3010 3012 3018 3022 3025 3027 3029 3031 3035 3035 3036 3036 3036 3035 3034 3032 3028 3026 3022 3020 3012 3004 3001 2997 2995 2992 2986 2980 2975
2963 2966 2969 2970 2974 2977 2981 2985 2988 2991 2996 2999 3005 3011 3015 3020 3024 3025 3027 3031 3033 3035 3037 3037 3039 3039 3038 3037 3035 3034 3031 3028 3026 3018 3010 3007 3004 3000 2997 2993 2988 2982 2976
2972 2974 2978 2981 2983 2986 2991 2998 3001 3005 3009 3011 3014 3016 3020 3026 3029 3032 3032 3035 3038 3040 3041 3043 3042 3042 3040 3040 3038 3036 3034 3030 3023 3016 3013 3012 3007 3003 2999 2994 2989 2984 2979
2982 2985 2988 2990 2993 2998 3003 3008 3011 3014 3016 3018 3021 3025 3028 3033 3035 3036 3039 3041 3043 3045 3046 3046 3046 3045 3044 3043 3040 3039 3035 3029 3022 3020 3017 3014 3010 3006 3002 2997 2992 2987 2982
2990 2994 2996 2999 3004 3008 3012 3016 3018 3020 3023 3026 3029 3032 3035 3039 3041 3043 3046 3048 3049 3049 3049 3048 3049 3049 3047 3046 3045 3041 3037 3028 3025 3024 3021 3017 3014 3009 3005 3000 2996 2991 2987
2998 3001 3005 3009 3012 3016 3020 3023 3027 3030 3032 3035 3037 3039 3041 3044 3047 3049 3051 3053 3053 3053 3054 3054 3052 3052 3050 3050 3047 3043 3038 3032 3030 3028 3023 3020 3017 3012 3008 3003 2999 2995 2991
3004 3007 3011 3015 3019 3022 3026 3030 3033 3035 3038 3041 3044 3045 3046 3050 3052 3055 3057 3056 3057 3059 3059 3057 3057 3056 3055 3053 3049 3045 3040 3037 3034 3029 3026 3024 3020 3016 3012 3008 3003 2999 2995
3008 3012 3017 3020 3024 3028 3032 3034 3037 3041 3045 3047 3049 3051 3054 3057 3059 3060 3060 3061 3062 3062 3062 3063 3062 3059 3060 3055 3051 3046 3043 3041 3036 3032 3031 3027 3023 3019 3015 3012 3008 3003 3000
3013 3017 3023 3026 3029 3033 3036 3040 3044 3047 3050 3052 3055 3058 3059 3062 3062 3064 3065 3065 3065 3067 3067 3066 3065 3065 3062 3058 3053 3050 3047 3044 3040 3037 3035 3030 3026 3023 3020 3016 3012 3008 3005
3019 3023 3028 3032 3035 3039 3043 3046 3049 3052 3054 3058 3060 3061 3063 3066 3066 3069 3069 3070 3070 3069 3070 3069 3070 3070 3066 3060 3057 3054 3050 3048 3045 3042 3039 3034 3030 3028 3025 3020 3017 3015 3012